Volver al catálogo

STARLINK-34800

ActivoComunicacionesVLEO
NORAD 65361·PAYLOAD·🇺🇸 United States

Lanzado Aug 28, 2025 desde Cape Canaveral Space Force Station

Loading…

Próximos Pases (próximas 24 horas)

TLE

ActualizadoSource: CelesTrak SupGP

Época: Sep 15, 2026, 03:56 UTC

1 65361C 25190L   26258.16437500  .00070647  00000+0  20874-2 0  2581
2 65361  53.1584   6.4317 0001197  91.5951  65.6254 15.34352976    12

Sigue STARLINK-34800 en tiempo real con AllMySat

Download on the App Store